Regional Weather Roundup
Issued by NWS

Current Version | Previous Version | Text Only | Print | Product List | Glossary On
Versions: 1 2 3 4 5 6 7 8 9 10 11 12 13 14 15 16 17 18 19 20 21 22 23 24 25 26 27 28 29 30 31 32 33 34 35 36 37 38 39 40 41 42 43 44 45 46 47 48 49 50
000
ASUS45 KREV 191610
RWRNV
NEVADA REGIONAL WEATHER ROUNDUP
NATIONAL WEATHER SERVICE RENO NV
900 AM PDT TUE SEP 19 2017

NOTE: "FAIR" INDICATES FEW OR NO CLOUDS BELOW 12,000 FEET WITH NO
SIGNIFICANT WEATHER AND/OR OBSTRUCTIONS TO VISIBILITY.

NVZ001-003-004-191700-
WESTERN NEVADA

CITY           SKY/WX    TMP DP  RH WIND       PRES   REMARKS
RENO           PTSUNNY   58  34  40 NW13      29.98S
CARSON CITY    FAIR      59  25  27 W9G16     29.98R
MINDEN         FAIR      61  19  20 E7        29.96S
SLIDE MTN        N/A     34  16  47 W24         N/A
FALLON         PTSUNNY   59  33  37 N15G21    29.98R
LOVELOCK       MOSUNNY   56  29  35 N13       29.99R
HAWTHORNE      SUNNY     59  36  41 NW20G28   29.95R
$$

NVZ002-CAZ072-073-191700-
NORTHERN AND CENTRAL SIERRA

CITY           SKY/WX    TMP DP  RH WIND       PRES   REMARKS
S. LAKE TAHOE  SUNNY     52  28  39 S17G23    30.03S
TRUCKEE        MOSUNNY   48  34  57 CALM      30.05
SQUAW VLY 8000   N/A     37  32  81 SW15        N/A
SUSANVILLE     SUNNY     52  34  50 W8        30.02S
BLUE CANYON    MOSUNNY   47  42  83 CALM      30.07R
MAMMOTH LAKES  FAIR      59  25  27 SE7       30.04R
BRIDGEPORT     FAIR      57  16  20 S13G23    30.00R
$$

NVZ030-031-036-191700-
NORTHERN NEVADA

CITY           SKY/WX    TMP DP  RH WIND       PRES   REMARKS
ELKO           CLOUDY    51  31  46 W14       29.95R
WINNEMUCCA     SUNNY     54  27  35 W10       29.99R
WENDOVER       PTSUNNY   56  36  47 S8        29.90R
$$

NVZ035-037-191700-
CENTRAL NEVADA

CITY           SKY/WX    TMP DP  RH WIND       PRES   REMARKS
ELY            MOSUNNY   58  35  42 VRB5      29.95R
EUREKA           N/A     54  33  45 NE3       29.96
$$

NVZ013-014-191700-
SOUTH CENTRAL NEVADA

CITY           SKY/WX    TMP DP  RH WIND       PRES   REMARKS
TONOPAH        SUNNY     63  31  30 N13       29.97R
$$

NVZ017-020-022-191700-
SOUTHERN NEVADA

CITY           SKY/WX    TMP DP  RH WIND       PRES   REMARKS
LAS VEGAS      MOSUNNY   77  42  28 S16G26    29.79R
N. LAS VEGAS   PTSUNNY   77  38  24 SW10      29.79R
NELLIS AFB     PTSUNNY   78  41  26 S13       29.79R
HENDERSON      MOSUNNY   76  41  28 S23       29.82R
MERCURY        PTSUNNY   72  37  28 SW12      29.86R
$$



USA.gov is the U.S. government's official web portal to all federal, state and local government web resources and services.